Overview Statistics Trail Chart Weather Telemetry Raw packets
 

This is the latest recevied weather packets stored in our database for station/object WX4SGA. If no packets are shown the sender has not sent any weather packets the latest 10 day(s).

<< 79 80 81 82 83 84 85 >>
Time Temp. Humidity Pressure Rain* Wind** Luminosity Snow
1788041633 27.78° C 91% 1018.6 hPa 0 mm - 111 W/m² -
1788041328 27.22° C 91% 1018.6 hPa 0 mm - 86 W/m² -
1788041022 27.22° C 90% 1018.6 hPa 0 mm - 63 W/m² -
1788040721 27.78° C 91% 1019 hPa 0 mm - 60 W/m² -
1788040415 28.33° C 87% 1019 hPa 0 mm - 64 W/m² -
1788040111 28.33° C 86% 1019 hPa 0 mm - 65 W/m² -
1788039805 28.33° C 86% 1019 hPa 0 mm - 78 W/m² -
1788039500 28.33° C 86% 1019 hPa 0 mm - 61 W/m² -
1788039204 28.33° C 86% 1018.6 hPa 0 mm - 69 W/m² -
1788038891 28.33° C 84% 1019 hPa 0 mm - 79 W/m² -
1788038586 28.33° C 84% 1019 hPa 0 mm - 76 W/m² -
1788038285 28.33° C 83% 1019 hPa 0 mm - 72 W/m² -
1788037981 28.33° C 83% 1019 hPa 0 mm - 84 W/m² -
1788037675 28.89° C 83% 1019 hPa 0 mm - 118 W/m² -
1788037370 28.89° C 82% 1018.6 hPa 0 mm - 128 W/m² -
1788037069 28.89° C 82% 1018.6 hPa 0 mm - 142 W/m² -
1788036764 28.89° C 82% 1018.6 hPa 0 mm - 182 W/m² -
1788036461 28.89° C 81% 1018.6 hPa 0 mm - 200 W/m² -
1788036156 28.89° C 82% 1019 hPa 0 mm - 253 W/m² -
1788035856 28.89° C 84% 1018.6 hPa 0 mm - 233 W/m² -
1788035551 28.33° C 80% 1019 hPa 0 mm - 210 W/m² -
1788035246 28.33° C 83% 1019 hPa 0 mm - 176 W/m² -
1788034942 28.89° C 84% 1019 hPa 0 mm - 169 W/m² -
1788034638 28.33° C 86% 1019 hPa 0 mm - 184 W/m² -
1788034334 28.33° C 84% 1019 hPa 0 mm - 186 W/m² -

* Rain latest hour (hover to see other rain measurements)
** Current wind speed in m/s (hover to see current wind gust speed)